Windsor, Ontario

8:47 AM EDT on May 24, 2017 (GMT -0400)
Windsor

Weather History for CYQG - March, 2013

Change the Weather History Date:

Saturday, March 23, 2013

  Actual Average Record
Temperature  
Mean Temperature 32 °F -  
Max Temperature 39 °F 53 °F 68 °F (2012)
Min Temperature 24 °F 35 °F 17 °F (2008)
Degree Days  
Heating Degree Days 34    
Moisture  
Dew Point 22 °F    
Average Humidity 67    
Maximum Humidity 93    
Minimum Humidity 45    
Precipitation  
Precipitation 0.00 in 0.10 in - ()
Sea Level Pressure  
Sea Level Pressure 30.08 in    
Wind  
Wind Speed 4 mph ()    
Max Wind Speed 14 mph    
Max Gust Speed -    
Visibility 15.0 miles    
Events      
Averages and records for this station are not official NWS values.
T = Trace of Precipitation, MM = Missing Value Source: Averaged Metar Reports

Daily Weather History Graph

Daily Weather History Graph

Search for Another Location

Airport or City:

Trip Planner

Search our weather history database for the weather conditions in past years. The results will help you decide how hot, cold, wet, or windy it might be!

Date:

Astronomy

Mar. 23, 2013 Rise Set
Actual Time 7:29 AM EDT 7:47 PM EDT
Civil Twilight 7:01 AM EDT 8:15 PM EDT
Nautical Twilight 6:28 AM EDT 8:48 PM EDT
Astronomical Twilight 5:54 AM EDT 9:22 PM EDT
Moon 4:09 PM EDT (3/23) 5:09 AM EDT (3/23)
Length of Visible Light 13h 14m
Length of Day
12h 18m
Waxing Gibbous, 85% of the Moon is Illuminated
Mar 23
Waxing Gibbous
Mar 27
Full
Apr 3
Last Quarter
Apr 10
New
Apr 18
First Quarter

Hourly Weather History & Observations

Time (EDT) Temp. Windchill Dew Point Humidity Pressure Visibility Wind Dir Wind Speed Gust Speed Precip Events Conditions
12:00 AM 30.2 °F 26.7 °F 21.2 °F 69% 30.04 in 15.0 mi SE 3.5 mph - N/A   Partly Cloudy
1:00 AM 28.4 °F - 21.2 °F 74% 30.04 in 15.0 mi South 2.3 mph - N/A   Clear
2:00 AM 28 °F - 21 °F 65% 30.04 in 15 mi South 13.8 mph - -  
2:00 AM 28.4 °F - 21.2 °F 74% 30.04 in 15.0 mi Calm Calm - N/A   Clear
3:00 AM 26.6 °F - 21.2 °F 80% 30.04 in 15.0 mi West 2.3 mph - N/A   Clear
4:00 AM 24.8 °F - 19.4 °F 80% 30.04 in 15.0 mi Calm Calm - N/A   Clear
5:00 AM 26.6 °F 21.2 °F 19.4 °F 74% 30.03 in 15.0 mi NNW 4.6 mph - N/A   Clear
6:00 AM 24.8 °F - 19.4 °F 80% 30.04 in 15.0 mi NW 2.3 mph - N/A   Clear
7:00 AM 26.6 °F 21.2 °F 21.2 °F 80% 30.05 in 15.0 mi North 4.6 mph - N/A   Partly Cloudy
8:00 AM 26 °F - 20 °F 71% 30.07 in 15 mi North 4.6 mph - -   Scattered Clouds
8:00 AM 26.6 °F 21.2 °F 21.2 °F 80% 30.07 in 15.0 mi NNW 4.6 mph - N/A   Partly Cloudy
9:00 AM 30.2 °F 23.4 °F 21.2 °F 69% 30.08 in 15.0 mi North 6.9 mph - N/A   Scattered Clouds
10:00 AM 32.0 °F 24.8 °F 30.2 °F 93% 30.09 in 15.0 mi North 8.1 mph - N/A   Mostly Cloudy
11:00 AM 32.0 °F 26.4 °F 21.2 °F 64% 30.11 in 15.0 mi North 5.8 mph - N/A   Mostly Cloudy
12:00 PM 33.8 °F 30.8 °F 21.2 °F 60% 30.12 in 15.0 mi NNW 3.5 mph - N/A   Mostly Cloudy
1:00 PM 35.6 °F - 21.2 °F 56% 30.11 in 15.0 mi Calm Calm - N/A   Mostly Cloudy
2:00 PM 36 °F - 22 °F 45% 30.11 in 15 mi NW 3.5 mph - -   Mostly Cloudy
2:00 PM 37.4 °F 32.8 °F 23.0 °F 56% 30.11 in 15.0 mi North 5.8 mph - N/A   Mostly Cloudy
3:00 PM 37.4 °F - 23.0 °F 56% 30.09 in 15.0 mi Calm Calm - N/A   Mostly Cloudy
4:00 PM 39.2 °F 35.0 °F 23.0 °F 52% 30.07 in 15.0 mi ESE 5.8 mph - N/A   Mostly Cloudy
5:00 PM 39.2 °F 35.9 °F 23.0 °F 52% 30.09 in 15.0 mi SE 4.6 mph - N/A   Mostly Cloudy
6:00 PM 39.2 °F 35.9 °F 23.0 °F 52% 30.09 in 15.0 mi SE 4.6 mph - N/A   Scattered Clouds
7:00 PM 37.4 °F 31.4 °F 23.0 °F 56% 30.08 in 15.0 mi East 8.1 mph - N/A   Partly Cloudy
8:00 PM 34 °F - 23 °F 52% 30.09 in 15 mi East 5.8 mph - -   Scattered Clouds
8:00 PM 33.8 °F 28.6 °F 23.0 °F 65% 30.09 in 15.0 mi East 5.8 mph - N/A   Partly Cloudy
9:00 PM 30.2 °F 24.3 °F 23.0 °F 75% 30.09 in 15.0 mi NE 5.8 mph - N/A   Clear
10:00 PM 30.2 °F 23.4 °F 23.0 °F 75% 30.11 in 15.0 mi ENE 6.9 mph - N/A   Clear
11:00 PM 30.2 °F 24.3 °F 23.0 °F 75% 30.10 in 15.0 mi East 5.8 mph - N/A   Partly Cloudy